665  
ASUS41 KBGM 190310  
RWRBGM  
 
REGIONAL WEATHER ROUNDUP  
NATIONAL WEATHER SERVICE BINGHAMTON NY  
1100 PM EDT WED JUL 18 2018  
 
NOTE: "FAIR" INDICATES FEW OR NO CLOUDS BELOW 12,000 FEET WITH NO  
SIGNIFICANT WEATHER AND/OR S TO VISIBILITY
.  
 
* = STATION(S) THAT DOES NOT REPORT PRECIPITATION, SUCH AS RAIN,  
SNOW, ETC, ALSO NO THUNDER OR FOG.
 
 
NYZ009-015>018-022>025-036-037-044>046-055>057-062-190400   
..CENTRAL NEW YORK
 
 
 
CITY SKY/WX TMP DP RH WIND PRES REMARKS
 
BINGHAMTON FAIR 60 42 51 NW7 30.07S  
CORTLAND FAIR 50 46 87 CALM 30.08F  
DANSVILLE FAIR 59 50 72 CALM 30.09R  
ELMIRA FAIR 57 51 80 CALM 30.07R  
SENECA FALLS CLEAR 55 52 88 S3 30.06S  
ITHACA FAIR 50 48 93 E3 30.08S  
HAMILTON CLEAR 52 48 87 CALM 30.07S  
MONTICELLO N/A N/A N/A N/A NW6 30.06  
ONEONTA CLEAR 57 46 67 CALM 30.08R  
PENN YAN FAIR 54 49 83 CALM 30.07F  
ROME FAIR 59 51 75 N3 30.07R  
SIDNEY CLEAR 54 52 94 CALM 30.07R  
SYRACUSE FAIR 60 51 72 CALM 30.05R  

 
 
PAZ038>040-043-044-047-048-072-190400   
..NORTHEAST PENNSYLVANIA
 
 
 
CITY SKY/WX TMP DP RH WIND PRES REMARKS
 
HAZLETON FAIR 63 46 55 N3 30.09R  
SCRANTON FAIR 58 53 84 CALM 30.05R  

 

 
KEY  
WCI = WIND CHILL INDEX  
VSB = VISIBILITY  
HX = HEAT INDEX  

 
 
 
CLICK HERE TO GO TO PREVIOUS BULLETINS.

The Nexlab NY Page
The Nexlab PA Page Main Text Page